Home   Weather   McAllen   Past weeks

Flag for USA Past Weather in McAllen, Texas, USA — Yesterday and Last 2 Weeks

Now
68 °F

Sunny.


Feels Like: 68 °F
Forecast: 60 / 89 °F
Wind: 17 mph from Southeast

Location: Miller International Airport

Current Time: Jan 24, 2017 at 9:44:17 am

Latest Report: Jan 24, 2017 at 8:53 am


Visibility: 10 mi

Pressure: 29.78 "Hg

Humidity: 68%

Dew Point: 57 °F

Location of McAllenLocation

Past Weather in McAllen — Graph

°F

McAllen Temperature Yesterday

Maximum temperature yesterday: 83 °F (at 3:53 pm)
Minimum temperature yesterday: 50 °F (at 5:53 am)
Average temperature yesterday: 66 °F

High & Low Weather Summary for the Past Weeks

 TemperatureHumidityPressure
High95 °F (Jan 21, 3:53 pm)97% (Jan 20, 11:53 pm)30.40 "Hg (Jan 20, 11:53 pm)
Low46 °F (Jan 9, 7:53 am)9% (Jan 22, 12:53 pm)29.41 "Hg (Jan 21, 5:53 pm)
Average71 °F71%29.95 "Hg
* Reported Jan 9 7:53 am — Jan 24 7:53 am, McAllen, Weather by CustomWeather, © 2017

Note: Actual official high and low records may vary slightly from our data, if they occured in-between our weather recording intervals... More about our weather records

Advertising

McAllen Weather History for the Previous 24 Hours

Scroll right to see more
 ConditionsComfort  
Time TempWeatherWind HumidityBarometerVisibility
7:53 am
Tue, Jan 24
63 °FSunny.16 mph75%29.77 "Hg10 mi
6:53 am63 °FClear.14 mph73%29.77 "Hg10 mi
5:53 am63 °FClear.14 mph70%29.77 "Hg10 mi
4:53 am62 °FClear.12 mph75%29.78 "Hg10 mi
3:53 am62 °FClear.12 mph73%29.80 "Hg10 mi
2:53 am62 °FClear.10 mph73%29.81 "Hg10 mi
1:53 am62 °FClear.8 mph75%29.83 "Hg10 mi
12:53 am62 °FClear.9 mph75%29.85 "Hg10 mi
11:53 pm
Mon, Jan 23
62 °FClear.10 mph75%29.87 "Hg10 mi
10:53 pm63 °FClear.9 mph70%29.89 "Hg10 mi
9:53 pm64 °FClear.10 mph61%29.91 "Hg10 mi
8:53 pm65 °FClear.10 mph47%29.91 "Hg10 mi
7:53 pm69 °FClear.10 mph35%29.90 "Hg10 mi
6:53 pm68 °FClear.8 mph36%29.89 "Hg10 mi
5:53 pm77 °FSunny.9 mph23%29.88 "Hg10 mi
4:53 pm82 °FSunny.10 mph18%29.89 "Hg10 mi
3:53 pm83 °FSunny.8 mph15%29.90 "Hg10 mi
2:53 pm82 °FSunny.8 mph15%29.93 "Hg10 mi
1:53 pm81 °FSunny.3 mph15%29.98 "Hg10 mi
12:53 pm79 °FSunny.8 mph15%30.02 "Hg10 mi
11:53 am78 °FSunny.5 mph18%30.06 "Hg10 mi
10:53 am74 °FSunny.3 mph22%30.10 "Hg10 mi
9:53 am68 °FSunny.6 mph26%30.10 "Hg10 mi
Weather by CustomWeather, © 2017

See weather overviewHow to use our weather pages